Observations for Trim Patrick St
| Time | AQI | Temp °C | Hum % | Pres Pa | CO μg/m³ | H₂S μg/m³ | NO μg/m³ | NO₂ μg/m³ | O₃ μg/m³ | SO₂ μg/m³ | PM1 μg/m³ | PM2.5 μg/m³ | PM10 μg/m³ |
|---|---|---|---|---|---|---|---|---|---|---|---|---|---|
| Tuesday 4 August 2026 | |||||||||||||
| 23:29 | 2 | 17.2 | 72 | 38,460 | 0.05 | 0.81 | 2.2 | 13.86 | 65.01 | 0 | 5.43 | 10.08 | 11.09 |
| 23:28 | 2 | 17.2 | 71 | 38,460 | 0.06 | 0.44 | 2.22 | 9.16 | 50.66 | 0 | 5.43 | 10.82 | 11.9 |
| 23:27 | 2 | 17.2 | 72 | 38,460 | 0.06 | 1.33 | 2.17 | 11.59 | 64.08 | 0 | 5.43 | 9.34 | 10.28 |
| 23:26 | 2 | 17.2 | 71 | 38,460 | 0.05 | 0.68 | 2.21 | 12.7 | 66.41 | 0 | 6.29 | 10.09 | 11.1 |
| 23:25 | 2 | 17.3 | 71 | 38,460 | 0.04 | 0 | 2.18 | 11.47 | 57.24 | 0 | 5.43 | 10.09 | 11.1 |
| 23:24 | 2 | 17.2 | 71 | 38,460 | 0.05 | 0 | 2.23 | 9.98 | 58.13 | 0 | 3.71 | 8.67 | 9.54 |
| 23:23 | 2 | 17.3 | 72 | 38,460 | 0.04 | 0.55 | 2.15 | 10.83 | 64.68 | 0 | 4.57 | 9.36 | 10.29 |
| 23:22 | 2 | 17.3 | 72 | 38,460 | 0.04 | 2.01 | 2.12 | 13.16 | 64.64 | 0 | 3.71 | 7.9 | 8.69 |
| 23:21 | 2 | 17.3 | 72 | 38,460 | 0.04 | 1.31 | 2.11 | 12.26 | 62.08 | 0 | 3.71 | 7.89 | 8.68 |
| 23:20 | 2 | 17.3 | 72 | 38,460 | 0.05 | 1.41 | 2.12 | 12.64 | 61.26 | 0 | 2.86 | 7.18 | 7.9 |
| 23:19 | 2 | 17.3 | 71 | 38,460 | 0.04 | 1.57 | 2.17 | 12.86 | 65.42 | 0 | 3.71 | 7.94 | 8.73 |
| 23:18 | 2 | 17.3 | 71 | 38,460 | 0.04 | 2.17 | 2.22 | 15.04 | 60.39 | 0 | 4.57 | 7.97 | 8.77 |
| 23:17 | 2 | 17.3 | 71 | 38,460 | 0.03 | 1.04 | 2.18 | 12.03 | 56.99 | 0 | 2 | 6.51 | 7.16 |
| 23:16 | 2 | 17.3 | 72 | 38,460 | 0.04 | 2.38 | 2.1 | 13.55 | 61.52 | 0 | 2.86 | 7.16 | 7.88 |
| 23:15 | 2 | 17.3 | 72 | 38,460 | 0.04 | 1.91 | 2.1 | 11.88 | 58.57 | 0 | 3.71 | 7.18 | 7.89 |
| 23:14 | 2 | 17.3 | 72 | 38,460 | 0.03 | 2.06 | 2.13 | 13.84 | 64.73 | 0 | 3.71 | 7.91 | 8.7 |
| 23:13 | 2 | 17.3 | 72 | 38,460 | 0.03 | 2.35 | 2.11 | 13.7 | 65.21 | 0 | 4.57 | 8.61 | 9.47 |
| 23:12 | 2 | 17.3 | 71 | 38,460 | 0.03 | 2.33 | 2.14 | 12.45 | 64.63 | 0 | 5.43 | 10.09 | 11.1 |
| 23:11 | 2 | 17.3 | 72 | 38,460 | 0.03 | 2.14 | 2.13 | 12.88 | 60.68 | 0 | 3.71 | 7.2 | 7.92 |
| 23:10 | 2 | 17.3 | 72 | 38,460 | 0.04 | 2.4 | 2.07 | 13.43 | 60.58 | 0 | 3.71 | 7.86 | 8.65 |